Regional Weather Roundup
Issued by NWS

Home | Current Version | Previous Version | Text Only | Print | Product List | Glossary Off
Versions: 1 2 3 4 5 6 7 8 9 10 11 12 13 14 15 16 17 18 19 20 21 22 23 24 25 26 27 28 29 30 31 32 33 34 35 36 37 38 39 40 41 42 43 44 45 46 47 48 49 50

000
ASUS43 KDMX 220601
RWRIA

WEATHER ROUNDUP FOR IOWA
NATIONAL WEATHER SERVICE DES MOINES IA
100 AM CDT FRI SEP 22 2017

NOTE: "FAIR" INDICATES FEW OR NO CLOUDS BELOW 12,000 FEET WITH NO
SIGNIFICANT WEATHER AND/OR OBSTRUCTIONS TO VISIBILITY.

* - THESE STATIONS ARE NOT NWS STATIONS...THUS NOT UNDER NWS
QUALITY CONTROL.  THEY ALSO DO NOT REPORT WEATHER SUCH
AS PRECIPITATION OR FOG.

IAZ001>003-012>014-020>022-031>034-043>046-220700-
   NORTHWEST IOWA

CITY           SKY/WX    TMP DP  RH WIND       PRES   REMARKS
CARROLL *      CLEAR     79  72  78 S14       29.84S HX  82
CHEROKEE *     CLEAR     75  73  94 S8        29.80S
DENISON *      PTCLDY    77  72  83 S15G23    29.84R
LE MARS *      CLEAR     79  73  83 S13       29.76S HX  82
ORANGE CITY *  CLEAR     79  73  83 S10G17    29.78R HX  82
SHELDON *      CLEAR     75  72  88 S10       29.77R
SIOUX CITY     CLEAR     78  74  87 SE9       29.76R HX  81
6HR MIN TEMP:  77; 6HR MAX TEMP:  86;

SPENCER        CLEAR     76  71  85 S14       29.81R
6HR MIN TEMP:  76; 6HR MAX TEMP:  83;

STORM LAKE *   CLEAR     75  72  88 S12       29.83R
$$

IAZ055>058-069>071-079>083-090>094-220700-
   SOUTHWEST IOWA

CITY           SKY/WX    TMP DP  RH WIND       PRES   REMARKS
ATLANTIC *     CLEAR     79  72  78 S14G22    29.85S HX  82
AUDUBON *      CLEAR     79  72  78 S10G17    29.87R HX  82
CLARINDA *     CLEAR     77  73  88 S8        29.89R
COUNCIL BLFS * PTCLDY    79  75  89 S13G18    29.83R HX  82
CRESTON *      CLEAR     77  70  78 S14G21    29.92R
HARLAN  *      PTCLDY    77  73  88 S10G17    29.87R
LAMONI         CLEAR     77  70  79 S9        29.92R
6HR MIN TEMP:  77; 6HR MAX TEMP:  86;

RED OAK *      MOCLDY    77  73  88 S9        29.86R
SHENANDOAH *   CLEAR     79  72  78 S13       29.85R HX  82
$$

IAZ047>049-059>061-072>074-084-220700-
   CENTRAL IOWA

CITY           SKY/WX    TMP DP  RH WIND       PRES   REMARKS
AMES           CLEAR     74  71  91 S7        29.89S
6HR MIN TEMP:  74; 6HR MAX TEMP:  84;

ANKENY *       CLEAR     77  70  78 S6        29.90R
BOONE *        CLEAR     77  70  78 S8        29.88S
CHARITON *     CLEAR     77  68  73 S13       29.91S
DES MOINES     PTCLDY    79  69  71 S9        29.89R HX  81
6HR MIN TEMP:  79; 6HR MAX TEMP:  86;

GRINNELL*      CLEAR     75  71  87 SE9       29.93S
KNOXVILLE *    CLEAR     79  66  65 S13G18    29.90R HX  81
MARSHALLTOWN   CLEAR     75  71  87 SE7       29.91R
6HR MIN TEMP:  74; 6HR MAX TEMP:  84;

NEWTON *       CLEAR     73  70  88 S8        29.92R
PELLA *        CLEAR     76  67  73 S8        29.92S
PERRY *          N/A     76  72  85 S8        29.87S
$$

IAZ004>006-015-016-023>025-035-036-220700-
   NORTH CENTRAL IOWA

CITY           SKY/WX    TMP DP  RH WIND       PRES   REMARKS
ALGONA *       CLEAR     75  72  88 SE13G20   29.85S
CLARION *      PTCLDY    77  72  83 S14       29.87S
ESTHERVILLE    CLEAR     75  71  87 S13       29.82R
6HR MIN TEMP:  74; 6HR MAX TEMP:  81;

FORT DODGE *   CLEAR     78  70  76 S14G20    29.86S HX  80
MASON CITY     PTCLDY    73  69  87 SE9       29.90F
6HR MIN TEMP:  73; 6HR MAX TEMP:  83;

FOREST CITY *    N/A     73  70  88 S9        29.88S
WEBSTER CITY * CLEAR     75  70  83 SE9       29.85S
IOWA FALLS *     N/A     74  70  87 SE8       29.91S
$$

IAZ007>011-017>019-026>030-037>042-050>054-066-220700-
   NORTHEAST IOWA

CITY           SKY/WX    TMP DP  RH WIND       PRES   REMARKS
CEDAR RAPIDS   PTCLDY    75  70  84 S9        29.94S
6HR MIN TEMP:  75; 6HR MAX TEMP:  82;

CHARLES CITY * CLEAR     75  72  88 S9G15     29.93R
CLINTON *      CLEAR    N/A N/A N/A SE7       29.99R
DECORAH *      CLEAR     75  70  83 S10       29.93S
DUBUQUE        CLEAR     72  68  87 S12       29.98S
6HR MIN TEMP:  72; 6HR MAX TEMP:  76;

MONTICELLO *   CLEAR     73  70  88 SE7       29.96S
OELWEIN *      CLEAR     75  72  88 S13       29.95S
WATERLOO       CLEAR     75  70  84 S12       29.90F
6HR MIN TEMP:  74; 6HR MAX TEMP:  84;

$$

IAZ064-065-067-068-078-220700-
   EAST CENTRAL IOWA

CITY           SKY/WX    TMP DP  RH WIND       PRES   REMARKS
DAVENPORT      CLEAR     75  68  78 S7        30.00R
6HR MIN TEMP:  75; 6HR MAX TEMP:  80;

IOWA CITY      CLEAR     74  70  87 SE6       29.96S
6HR MIN TEMP:  74; 6HR MAX TEMP:  82;

MUSCATINE *    CLEAR     70  66  88 CALM      29.96S
QUAD CITIES    CLEAR     74  68  81 S6        29.97R
6HR MIN TEMP:  74; 6HR MAX TEMP:  82;

$$

IAZ062-063-075>077-085>089-095>099-220700-
   SOUTHEAST IOWA

CITY           SKY/WX    TMP DP  RH WIND       PRES   REMARKS
BURLINGTON     CLEAR     78  70  76 S13       29.97R HX  80
6HR MIN TEMP:  78; 6HR MAX TEMP:  82;

FAIRFIELD *    PTCLDY    75  70  83 S9        29.94S
FORT MADISON * CLEAR     75  70  83 S6        29.98S
KEOKUK *       CLEAR     77  68  73 S7        29.97R
OSKALOOSA *      N/A     74  71  88 S8        29.93S
OTTUMWA        CLEAR     76  72  87 S9        29.93S
6HR MIN TEMP:  76; 6HR MAX TEMP:  83;

WASHINGTON *   CLEAR     73  72  94 SE6       29.96S
$$

ABBREVIATIONS USED IN REMARKS
   TC - TEMPERATURES IN CELSIUS
  WCI - WIND CHILL INDEX
   HX - HEAT INDEX
  VSB - VISIBILITY
$$





USA.gov is the U.S. government's official web portal to all federal, state and local government web resources and services.